Everett, WA
on Saturday, December 22, 2012

Saturday
Previous Day Next Day
Daily Summary
 ActualAverageRecord
Temperature
Mean Temperature °F °F  
Max Temperature 45°F 42°F 57°F (1950)
Min Temperature 39°F 32°F 7°F (1990)
Degree Days
Heating Degree Days 23    
Moisture
Dew Point 35°F   
Average Humidity 77    
Maximum Humidity 89    
Minimum Humidity 65    
Precipitation
Precipitation 0.11 in in in ()
Wind
Wind Speed 10 mph   
Max Wind Speed 25 mph   
Max Gust Speed 37 mph   
Visibility 10 miles   
Events Rain   
Averages and records for this station are not official NWS values.
Key: T is trace of precipitation, MM is missing value
Source: NWS Daily Summary
Seasonal Weather Averages
Time(PST)TemperatureDew PointHumidity Pressure Visibility Wind DirectionWind SpeedGust SpeedPrecipitationEvents Conditions
12:53 AM 39.2°F 33.8°F 81% 29.65 in 10.0 miles ESE 9.2 mph - N/A   Overcast
1:53 AM 39.0°F 35.1°F 86% 29.64 in 10.0 miles ESE 6.9 mph - N/A   Mostly Cloudy
2:53 AM 39.9°F 35.1°F 83% 29.61 in 10.0 miles ESE 9.2 mph - N/A   Overcast
3:53 AM 39.0°F 33.1°F 79% 29.59 in 10.0 miles ESE 8.1 mph - N/A   Mostly Cloudy
4:53 AM 39.0°F 33.1°F 79% 29.55 in 10.0 miles ESE 6.9 mph - N/A   Scattered Clouds
5:53 AM 41.0°F 32.0°F 70% 29.53 in 10.0 miles ESE 8.1 mph - N/A   Mostly Cloudy
6:53 AM 43.0°F 32.0°F 65% 29.52 in 10.0 miles Variable 4.6 mph - N/A   Overcast
7:53 AM 41.0°F 34.0°F 76% 29.51 in 10.0 miles SSE 6.9 mph - 0.00 in Rain Light Rain
8:53 AM 41.0°F 35.1°F 79% 29.52 in 8.0 miles Variable 4.6 mph - 0.02 in Rain Light Rain
9:53 AM 42.1°F 37.0°F 82% 29.52 in 8.0 miles SSW 5.8 mph - 0.03 in Rain Light Rain
10:41 AM 42.8°F 37.4°F 81% 29.53 in 9.0 miles South 5.8 mph - 0.03 in Rain Light Rain
10:53 AM 41.0°F 37.9°F 89% 29.55 in 3.0 miles South 5.8 mph - 0.04 in Rain Light Rain
11:53 AM 42.1°F 37.9°F 85% 29.54 in 10.0 miles SSE 8.1 mph - 0.02 in   Mostly Cloudy
12:53 PM 44.1°F 39.0°F 82% 29.53 in 10.0 miles SSE 12.7 mph 18.4 mph N/A   Partly Cloudy
1:53 PM 45.0°F 39.0°F 80% 29.55 in 10.0 miles South 10.4 mph - N/A   Overcast
2:53 PM 45.0°F 37.0°F 74% 29.54 in 10.0 miles SSE 17.3 mph 24.2 mph 0.00 in Rain Light Rain
3:53 PM 45.0°F 36.0°F 71% 29.56 in 10.0 miles SSE 13.8 mph - 0.00 in   Scattered Clouds
4:53 PM 44.1°F 35.1°F 71% 29.58 in 10.0 miles South 24.2 mph 36.8 mph 0.00 in Rain Light Rain
5:01 PM 44.6°F 35.6°F 71% 29.58 in 10.0 miles South 25.3 mph 31.1 mph 0.00 in   Overcast
5:53 PM 44.1°F 35.1°F 71% 29.61 in 10.0 miles South 18.4 mph 33.4 mph 0.00 in   Overcast
6:53 PM 44.1°F 34.0°F 68% 29.64 in 10.0 miles South 16.1 mph 21.9 mph N/A   Overcast
7:53 PM 43.0°F 34.0°F 71% 29.67 in 10.0 miles South 10.4 mph 16.1 mph N/A   Overcast
8:04 PM 42.8°F 33.8°F 70% 29.66 in 10.0 miles SSE 15.0 mph 24.2 mph N/A   Mostly Cloudy
8:53 PM 43.0°F 34.0°F 71% 29.69 in 10.0 miles South 12.7 mph 21.9 mph N/A   Scattered Clouds
9:53 PM 42.1°F 35.1°F 76% 29.70 in 10.0 miles South 16.1 mph 25.3 mph 0.00 in Rain Light Rain
10:24 PM 42.8°F 35.6°F 76% 29.71 in 10.0 miles South 12.7 mph - 0.00 in   Overcast
10:35 PM 42.8°F 35.6°F 76% 29.71 in 10.0 miles South 15.0 mph 20.7 mph 0.00 in Rain Light Rain
10:49 PM 41.0°F 35.6°F 81% 29.72 in 10.0 miles South 11.5 mph - 0.00 in Rain Light Rain
10:53 PM 41.0°F 36.0°F 82% 29.73 in 10.0 miles SSE 12.7 mph - 0.00 in Rain Light Rain
11:18 PM 41.0°F 37.4°F 87% 29.72 in 10.0 miles SSE 9.2 mph - 0.00 in   Overcast
11:53 PM 42.1°F 36.0°F 79% 29.74 in 10.0 miles SSE 10.4 mph - 0.00 in   Overcast
Moon Phase
Dec. 22 Dec. 28 Jan. 04 Jan. 11 Jan. 18
Sunrise:07:56 AM (PST) Moon Rise:12:52 PM (PST)12/22
Sunset:04:19 PM (PST) Moon Set:02:33 AM (PST)12/22

Copyright © 2014 The Weather Underground, Inc.